Brownsville, TX

4:58 PM CST on December 10, 2016 (GMT -0600)
Brownsville-South Padre I International

Weather History for KBRO - April, 2013

Change the Weather History Date:

Thursday, April 18, 2013

  Actual Average Record
Temperature  
Mean Temperature 82 °F 75 °F  
Max Temperature 99 °F 84 °F 100 °F (1920)
Min Temperature 64 °F 66 °F 46 °F (1901)
Degree Days  
Heating Degree Days 0 0  
Month to date heating degree days 2 6  
Since 1 July heating degree days 319 552  
Cooling Degree Days 17 10  
Month to date cooling degree days 186 163  
Year to date cooling degree days 573 478  
Growing Degree Days 32 (Base 50)    
Moisture  
Dew Point 68 °F    
Average Humidity 62    
Maximum Humidity 88    
Minimum Humidity 35    
Precipitation  
Precipitation 0.00 in 0.06 in 2.25 in (2016)
Month to date precipitation 0.01 0.94  
Year to date precipitation 1.77 4.52  
Sea Level Pressure  
Sea Level Pressure 29.71 in    
Wind  
Wind Speed 20 mph (ESE)    
Max Wind Speed 32 mph    
Max Gust Speed 39 mph    
Visibility 9 miles    
Events      
T = Trace of Precipitation, MM = Missing Value Source: NWS Daily Summary

Daily Weather History Graph

Daily Weather History Graph

Search for Another Location

Airport or City:

Trip Planner

Search our weather history database for the weather conditions in past years. The results will help you decide how hot, cold, wet, or windy it might be!

Date:

Astronomy

Apr. 18, 2013 Rise Set
Actual Time 7:03 AM CDT 7:54 PM CDT
Civil Twilight 6:39 AM CDT 8:18 PM CDT
Nautical Twilight 6:12 AM CDT 8:46 PM CDT
Astronomical Twilight 5:43 AM CDT 9:14 PM CDT
Moon 1:22 PM CDT (4/18) 2:02 AM CDT (4/18)
Length of Visible Light 13h 38m
Length of Day
12h 51m
First Quarter, 52% of the Moon is Illuminated
Apr 18
First Quarter
Apr 25
Full
May 2
Last Quarter
May 9
New
May 17
First Quarter

Hourly Weather History & Observations

Time (CDT) Temp. Heat Index Dew Point Humidity Pressure Visibility Wind Dir Wind Speed Gust Speed Precip Events Conditions
12:53 AM 77.0 °F - 73.0 °F 88% 29.70 in 8.0 mi SSE 17.3 mph 27.6 mph N/A   Overcast
1:53 AM 77.0 °F - 73.0 °F 88% 29.67 in 8.0 mi SSE 19.6 mph 32.2 mph N/A   Overcast
2:53 AM 77.0 °F - 73.0 °F 88% 29.66 in 8.0 mi SSE 17.3 mph 26.5 mph N/A   Overcast
3:53 AM 77.0 °F - 73.0 °F 88% 29.65 in 8.0 mi SSE 19.6 mph - N/A   Overcast
4:53 AM 77.0 °F - 73.0 °F 88% 29.63 in 9.0 mi SE 21.9 mph 27.6 mph N/A   Overcast
5:03 AM 77.0 °F - 73.4 °F 89% 29.64 in 9.0 mi SSE 21.9 mph 27.6 mph N/A   Overcast
5:20 AM 77.0 °F - 73.4 °F 89% 29.63 in 9.0 mi SSE 19.6 mph 28.8 mph N/A   Overcast
5:53 AM 77.0 °F - 73.0 °F 88% 29.62 in 9.0 mi SE 17.3 mph 31.1 mph N/A   Overcast
6:53 AM 77.0 °F - 73.0 °F 88% 29.62 in 9.0 mi SSE 19.6 mph 26.5 mph N/A   Overcast
7:23 AM 77.0 °F - 73.4 °F 89% 29.63 in 8.0 mi SSE 19.6 mph 28.8 mph N/A   Overcast
7:53 AM 77.0 °F - 73.0 °F 88% 29.64 in 8.0 mi SSE 24.2 mph 31.1 mph N/A   Overcast
8:15 AM 78.8 °F - 73.4 °F 83% 29.64 in 8.0 mi South 26.5 mph 34.5 mph N/A   Overcast
8:53 AM 79.0 °F - 73.0 °F 82% 29.65 in 8.0 mi South 20.7 mph 28.8 mph N/A   Overcast
9:14 AM 80.6 °F 85.4 °F 73.4 °F 79% 29.65 in 9.0 mi South 21.9 mph 32.2 mph N/A   Overcast
9:53 AM 82.9 °F 88.8 °F 73.0 °F 72% 29.65 in 10.0 mi South 25.3 mph 31.1 mph N/A   Overcast
10:31 AM 86.0 °F 93.4 °F 73.4 °F 66% 29.66 in 10.0 mi South 26.5 mph 38.0 mph N/A   Scattered Clouds
10:53 AM 88.0 °F 95.6 °F 73.0 °F 61% 29.66 in 10.0 mi South 28.8 mph 36.8 mph N/A   Partly Cloudy
11:53 AM 91.9 °F 99.5 °F 72.0 °F 52% 29.66 in 9.0 mi South 27.6 mph 36.8 mph N/A   Clear
12:53 PM 96.1 °F 102.9 °F 70.0 °F 43% 29.67 in 10.0 mi SSW 19.6 mph 32.2 mph N/A   Clear
1:53 PM 98.1 °F 106.5 °F 71.1 °F 42% 29.66 in 10.0 mi West 16.1 mph 23.0 mph N/A   Partly Cloudy
2:53 PM 96.1 °F 101.6 °F 69.1 °F 41% 29.66 in 10.0 mi WNW 13.8 mph 20.7 mph N/A   Scattered Clouds
3:53 PM 97.0 °F 99.9 °F 64.9 °F 35% 29.65 in 10.0 mi North 15.0 mph 23.0 mph N/A   Scattered Clouds
4:20 PM 86.0 °F 88.2 °F 66.2 °F 51% 29.69 in 2.5 mi North 18.4 mph 36.8 mph N/A   Haze
4:24 PM 84.2 °F 86.6 °F 66.2 °F 55% 29.69 in 3.0 mi North 17.3 mph 38.0 mph N/A   Haze
4:38 PM 80.6 °F 82.3 °F 64.4 °F 58% 29.71 in 4.0 mi North 20.7 mph 34.5 mph N/A   Haze
4:49 PM 78.8 °F - 64.4 °F 61% 29.72 in 2.5 mi North 27.6 mph 38.0 mph N/A   Haze
4:53 PM 78.1 °F - 64.9 °F 64% 29.73 in 7.0 mi North 24.2 mph 39.1 mph N/A   Overcast
5:53 PM 70.0 °F - 63.0 °F 78% 29.76 in 10.0 mi North 21.9 mph 38.0 mph N/A   Overcast
6:20 PM 69.8 °F - 62.6 °F 78% 29.78 in 10.0 mi NNE 20.7 mph 32.2 mph N/A   Overcast
6:53 PM 69.1 °F - 60.1 °F 73% 29.80 in 10.0 mi NNE 20.7 mph 32.2 mph N/A   Overcast
7:53 PM 68.0 °F - 60.1 °F 76% 29.83 in 10.0 mi NNE 18.4 mph 28.8 mph N/A   Overcast
8:53 PM 66.0 °F - 60.1 °F 81% 29.89 in 10.0 mi North 12.7 mph 26.5 mph N/A   Overcast
9:15 PM 64.4 °F - 57.2 °F 77% 29.91 in 10.0 mi North 15.0 mph 27.6 mph N/A   Mostly Cloudy
9:53 PM 64.9 °F - 55.9 °F 73% 29.93 in 10.0 mi North 15.0 mph 26.5 mph N/A   Partly Cloudy
10:53 PM 64.9 °F - 53.1 °F 65% 29.96 in 10.0 mi North 17.3 mph 24.2 mph N/A   Scattered Clouds
11:53 PM 64.9 °F - 52.0 °F 63% 29.99 in 10.0 mi North 15.0 mph 31.1 mph N/A   Overcast